Simultaneous Nadir Overpasses (SNOs) Predictions

Prediction of SNOs between GOES-17 and METOP-B Satellite Orbit:

Table of predicted SNOs for the next 14.0 days since TLE Epoch: 9/16/2023
Index Date Time (GOES-17) GOES-17 Lat,Lon METOP-B Lat,Lon Distance(km) Time Diff (sec)
1 09/16/2023 16:38:52 0.01,-104.71 0.73,-107.81 354.78 80
2 09/17/2023 16:20:51 0.01,-104.71 -0.40,-102.82 214.87 80
3 09/19/2023 04:39:50 -0.01,-104.69 -0.63,-107.41 310.79 80
4 09/20/2023 04:16:29 -0.01,-104.68 0.50,-102.42 258.29 80
5 09/21/2023 16:35:19 0.01,-104.70 0.53,-106.97 259.73 80
6 09/22/2023 16:17:18 0.01,-104.69 -0.60,-101.98 309.38 80
7 09/24/2023 04:36:16 -0.01,-104.67 -0.42,-106.57 216.68 80
8 09/25/2023 04:12:55 -0.01,-104.66 0.66,-101.57 352.10 80
9 09/26/2023 16:31:44 0.01,-104.67 0.36,-106.12 166.33 80
10 09/27/2023 16:13:44 0.01,-104.67 -0.78,-101.13 403.08 80
11 09/29/2023 04:32:42 -0.01,-104.65 -0.22,-105.73 122.03 80
